• In Deutschland
  • Länderverzeichnis
  • Für 7 Tage
  • Wassertemperatur
  • Satellitenkarten
  • Wetterkarte
  • Widgets
  • user-avatar
    Anmelden

    Stündliche Wetter Izosenki

    Heute, 19 Juni, Dienstag

    Zeit Temperatur Niederschläge Wind Luftdruck Luftfeuchtigkeit
    00:00 +16°C° 0 mm 1 m/S 745 mmHg 81%
    01:00 +16°C° 0 mm 1 m/S 745 mmHg 83%
    02:00 +15°C° 0 mm 2 m/S 745 mmHg 91%
    03:00 +16°C° 0,2 mm 2 m/S 745 mmHg 92%
    04:00 +16°C° 0,2 mm 2 m/S 745 mmHg 93%
    05:00 +16°C° 0,2 mm 2 m/S 745 mmHg 94%
    06:00 +17°C° 0 mm 2 m/S 745 mmHg 87%
    07:00 +20°C° 0 mm 1 m/S 745 mmHg 80%
    08:00 +21°C° 0 mm 1 m/S 745 mmHg 73%
    09:00 +23°C° 0 mm 2 m/S 745 mmHg 65%
    10:00 +24°C° 0 mm 3 m/S 745 mmHg 57%
    11:00 +25°C° 0 mm 3 m/S 745 mmHg 49%
    12:00 +26°C° 0 mm 4 m/S 744 mmHg 47%
    13:00 +26°C° 0 mm 4 m/S 744 mmHg 45%
    14:00 +27°C° 0 mm 4 m/S 743 mmHg 44%
    15:00 +26°C° 0 mm 4 m/S 743 mmHg 47%
    16:00 +25°C° 0 mm 4 m/S 743 mmHg 51%
    17:00 +25°C° 0 mm 4 m/S 743 mmHg 54%
    18:00 +22°C° 0,1 mm 3 m/S 742 mmHg 63%
    19:00 +20°C° 0,1 mm 3 m/S 742 mmHg 72%
    20:00 +18°C° 0,1 mm 3 m/S 742 mmHg 81%
    21:00 +18°C° 0,1 mm 3 m/S 742 mmHg 83%
    22:00 +17°C° 0,1 mm 4 m/S 743 mmHg 85%
    23:00 +15°C° 0,1 mm 4 m/S 743 mmHg 88%

    Morgen, 20 Juni, Mittwoch

    Zeit Temperatur Niederschläge Wind Luftdruck Luftfeuchtigkeit
    00:00 +14°C° 0 mm 3 m/S 743 mmHg 89%
    01:00 +13°C° 0 mm 3 m/S 744 mmHg 90%
    02:00 +12°C° 0 mm 3 m/S 744 mmHg 91%
    03:00 +12°C° 0 mm 3 m/S 744 mmHg 90%
    04:00 +12°C° 0 mm 3 m/S 744 mmHg 89%
    05:00 +12°C° 0 mm 3 m/S 745 mmHg 88%
    06:00 +14°C° 0 mm 4 m/S 745 mmHg 78%
    07:00 +15°C° 0 mm 4 m/S 745 mmHg 67%
    08:00 +18°C° 0 mm 4 m/S 745 mmHg 56%
    09:00 +19°C° 0 mm 5 m/S 745 mmHg 52%
    10:00 +20°C° 0 mm 5 m/S 745 mmHg 48%
    11:00 +22°C° 0 mm 5 m/S 745 mmHg 44%
    12:00 +22°C° 0 mm 5 m/S 745 mmHg 42%
    13:00 +23°C° 0 mm 5 m/S 745 mmHg 41%
    14:00 +23°C° 0 mm 5 m/S 744 mmHg 39%
    15:00 +23°C° 0 mm 5 m/S 744 mmHg 40%
    16:00 +22°C° 0 mm 5 m/S 744 mmHg 41%
    17:00 +22°C° 0 mm 5 m/S 744 mmHg 42%
    18:00 +20°C° 0 mm 4 m/S 744 mmHg 51%
    19:00 +19°C° 0 mm 3 m/S 744 mmHg 59%
    20:00 +17°C° 0 mm 2 m/S 745 mmHg 68%
    21:00 +16°C° 0 mm 2 m/S 745 mmHg 70%
    22:00 +15°C° 0 mm 2 m/S 745 mmHg 73%
    23:00 +14°C° 0 mm 2 m/S 745 mmHg 75%

    übermorgen, 21 Juni, Donnerstag

    Zeit Temperatur Niederschläge Wind Luftdruck Luftfeuchtigkeit
    00:00 +13°C° 0 mm 2 m/S 745 mmHg 77%
    01:00 +13°C° 0 mm 2 m/S 745 mmHg 79%
    02:00 +12°C° 0 mm 2 m/S 745 mmHg 81%
    03:00 +12°C° 0 mm 3 m/S 745 mmHg 80%
    04:00 +12°C° 0 mm 3 m/S 745 mmHg 79%
    05:00 +13°C° 0 mm 4 m/S 744 mmHg 78%
    06:00 +14°C° 0 mm 4 m/S 744 mmHg 74%
    07:00 +17°C° 0 mm 4 m/S 744 mmHg 71%
    08:00 +19°C° 0 mm 4 m/S 744 mmHg 67%
    09:00 +20°C° 0 mm 5 m/S 744 mmHg 64%
    10:00 +22°C° 0 mm 5 m/S 744 mmHg 61%
    11:00 +23°C° 0 mm 5 m/S 743 mmHg 57%
    12:00 +25°C° 0 mm 5 m/S 743 mmHg 56%
    13:00 +26°C° 0 mm 5 m/S 743 mmHg 54%
    14:00 +26°C° 0 mm 4 m/S 743 mmHg 53%
    15:00 +26°C° 0 mm 4 m/S 742 mmHg 56%
    16:00 +26°C° 0 mm 3 m/S 742 mmHg 59%
    17:00 +26°C° 0 mm 3 m/S 742 mmHg 62%
    18:00 +24°C° 0,1 mm 3 m/S 741 mmHg 68%
    19:00 +22°C° 0,1 mm 3 m/S 741 mmHg 73%
    20:00 +21°C° 0,1 mm 3 m/S 741 mmHg 79%
    21:00 +20°C° 0 mm 3 m/S 740 mmHg 80%
    22:00 +19°C° 0 mm 3 m/S 740 mmHg 82%
    23:00 +18°C° 0 mm 3 m/S 740 mmHg 83%

    22 Juni, Freitag

    Zeit Temperatur Niederschläge Wind Luftdruck Luftfeuchtigkeit
    00:00 +19°C° 0 mm 4 m/S 739 mmHg 80%
    01:00 +19°C° 0 mm 4 m/S 739 mmHg 76%
    02:00 +19°C° 0 mm 4 m/S 738 mmHg 73%
    03:00 +19°C° 0,2 mm 5 m/S 737 mmHg 78%
    04:00 +19°C° 0,2 mm 5 m/S 736 mmHg 82%
    05:00 +17°C° 0,2 mm 5 m/S 736 mmHg 87%
    06:00 +19°C° 0,8 mm 5 m/S 736 mmHg 89%
    07:00 +19°C° 0,8 mm 5 m/S 735 mmHg 92%
    08:00 +20°C° 0,8 mm 5 m/S 735 mmHg 95%
    09:00 +19°C° 1,3 mm 5 m/S 735 mmHg 95%
    10:00 +17°C° 1,3 mm 5 m/S 736 mmHg 95%
    11:00 +17°C° 1,3 mm 4 m/S 736 mmHg 95%
    12:00 +15°C° 0,5 mm 4 m/S 736 mmHg 94%
    13:00 +14°C° 0,5 mm 3 m/S 737 mmHg 93%
    14:00 +13°C° 0,5 mm 3 m/S 737 mmHg 92%
    15:00 +13°C° 0,1 mm 3 m/S 737 mmHg 90%
    16:00 +13°C° 0,1 mm 3 m/S 738 mmHg 87%
    17:00 +14°C° 0,1 mm 3 m/S 738 mmHg 85%
    18:00 +14°C° 0 mm 3 m/S 738 mmHg 84%
    19:00 +14°C° 0 mm 3 m/S 738 mmHg 84%
    20:00 +13°C° 0 mm 3 m/S 738 mmHg 83%
    21:00 +13°C° 0 mm 3 m/S 738 mmHg 84%
    22:00 +13°C° 0 mm 3 m/S 739 mmHg 84%
    23:00 +14°C° 0 mm 2 m/S 739 mmHg 84%

    23 Juni, Samstag

    Zeit Temperatur Niederschläge Wind Luftdruck Luftfeuchtigkeit
    00:00 +13°C° 0 mm 2 m/S 739 mmHg 85%
    01:00 +13°C° 0 mm 2 m/S 739 mmHg 85%
    02:00 +13°C° 0 mm 2 m/S 739 mmHg 86%
    03:00 +13°C° 0,1 mm 2 m/S 739 mmHg 86%
    04:00 +12°C° 0,1 mm 2 m/S 739 mmHg 86%
    05:00 +12°C° 0,1 mm 2 m/S 739 mmHg 86%
    06:00 +13°C° 0 mm 2 m/S 739 mmHg 81%
    07:00 +13°C° 0 mm 3 m/S 739 mmHg 76%
    08:00 +14°C° 0 mm 3 m/S 739 mmHg 72%
    09:00 +14°C° 0 mm 3 m/S 739 mmHg 67%
    10:00 +15°C° 0 mm 4 m/S 739 mmHg 62%
    11:00 +17°C° 0 mm 4 m/S 739 mmHg 57%
    12:00 +17°C° 0,1 mm 4 m/S 739 mmHg 55%
    13:00 +17°C° 0,1 mm 5 m/S 739 mmHg 53%
    14:00 +19°C° 0,1 mm 5 m/S 738 mmHg 51%
    15:00 +17°C° 0,4 mm 5 m/S 738 mmHg 58%
    16:00 +17°C° 0,4 mm 4 m/S 738 mmHg 65%
    17:00 +17°C° 0,4 mm 4 m/S 738 mmHg 72%
    18:00 +15°C° 0,2 mm 4 m/S 739 mmHg 78%
    19:00 +13°C° 0,2 mm 3 m/S 739 mmHg 85%
    20:00 +12°C° 0,2 mm 3 m/S 739 mmHg 91%
    21:00 +11°C° 0 mm 3 m/S 739 mmHg 93%
    22:00 +11°C° 0 mm 3 m/S 740 mmHg 95%
    23:00 +10°C° 0 mm 3 m/S 740 mmHg 97%

    24 Juni, Sonntag

    Zeit Temperatur Niederschläge Wind Luftdruck Luftfeuchtigkeit
    00:00 +9°C° 0 mm 3 m/S 740 mmHg 97%
    01:00 +9°C° 0 mm 3 m/S 741 mmHg 97%
    02:00 +9°C° 0 mm 3 m/S 741 mmHg 97%
    03:00 +9°C° 0 mm 3 m/S 742 mmHg 96%
    04:00 +8°C° 0 mm 3 m/S 742 mmHg 96%
    05:00 +8°C° 0 mm 3 m/S 743 mmHg 96%
    06:00 +10°C° 0 mm 3 m/S 743 mmHg 89%
    07:00 +11°C° 0 mm 3 m/S 744 mmHg 83%
    08:00 +12°C° 0 mm 3 m/S 744 mmHg 77%
    09:00 +13°C° 0 mm 3 m/S 744 mmHg 68%
    10:00 +16°C° 0 mm 3 m/S 745 mmHg 59%
    11:00 +18°C° 0 mm 3 m/S 745 mmHg 50%
    12:00 +18°C° 0,1 mm 3 m/S 745 mmHg 52%
    13:00 +18°C° 0,1 mm 3 m/S 745 mmHg 53%
    14:00 +18°C° 0,1 mm 3 m/S 745 mmHg 54%
    15:00 +18°C° 0,1 mm 2 m/S 745 mmHg 59%
    16:00 +18°C° 0,1 mm 2 m/S 746 mmHg 63%
    17:00 +18°C° 0,1 mm 1 m/S 746 mmHg 68%
    18:00 +16°C° 0 mm 1 m/S 746 mmHg 72%
    19:00 +15°C° 0 mm 1 m/S 746 mmHg 77%
    20:00 +14°C° 0 mm 1 m/S 746 mmHg 82%
    21:00 +13°C° 0 mm 1 m/S 746 mmHg 86%
    22:00 +12°C° 0 mm 1 m/S 746 mmHg 90%
    23:00 +11°C° 0 mm 1 m/S 747 mmHg 94%
    Mehr zeigen